Burley, ID

11:32 PM MDT on July 24, 2017 (GMT -0600)
Burley Municipal

Weather History for KBYI - September, 2013

Change the Weather History Date:

Thursday, September 26, 2013

  Actual Average Record
Temperature  
Mean Temperature 44 °F 55 °F  
Max Temperature 51 °F 70 °F 91 °F (1952)
Min Temperature 37 °F 40 °F 27 °F (1970)
Degree Days  
Heating Degree Days 21 10  
Month to date heating degree days 102 166  
Since 1 July heating degree days 102 223  
Cooling Degree Days 0 0  
Month to date cooling degree days 54 19  
Year to date cooling degree days 642 363  
Moisture  
Dew Point 37 °F    
Average Humidity 81    
Maximum Humidity 100    
Minimum Humidity 61    
Precipitation  
Precipitation 0.11 in 0.02 in 0.69 in (1982)
Month to date precipitation 1.37 0.46  
Year to date precipitation 4.07 7.22  
Sea Level Pressure  
Sea Level Pressure 29.81 in    
Wind  
Wind Speed 6 mph (SW)    
Max Wind Speed 15 mph    
Max Gust Speed 20 mph    
Visibility 9 miles    
Events Rain    
T = Trace of Precipitation, MM = Missing Value Source: NWS Daily Summary

Daily Weather History Graph

Daily Weather History Graph

Search for Another Location

Airport or City:

Trip Planner

Search our weather history database for the weather conditions in past years. The results will help you decide how hot, cold, wet, or windy it might be!

Date:

Astronomy

Sep. 26, 2013 Rise Set
Actual Time 7:27 AM MDT 7:24 PM MDT
Civil Twilight 6:59 AM MDT 7:52 PM MDT
Nautical Twilight 6:26 AM MDT 8:25 PM MDT
Astronomical Twilight 5:52 AM MDT 8:58 PM MDT
Moon No Moon Rise 2:28 PM MDT (9/26)
Length of Visible Light 12h 53m
Length of Day
11h 57m
Waning Gibbous, 54% of the Moon is Illuminated
Sep 26
Waning Gibbous
Sep 26
Last Quarter
Oct 4
New
Oct 11
First Quarter
Oct 18
Full

Hourly Weather History & Observations

Time (MDT) Temp. Windchill Dew Point Humidity Pressure Visibility Wind Dir Wind Speed Gust Speed Precip Events Conditions
12:04 AM 41.0 °F 35.2 °F 35.6 °F 81% 29.79 in 10.0 mi South 9.2 mph - N/A   Overcast
12:13 AM 41.0 °F 35.8 °F 35.6 °F 81% 29.78 in 10.0 mi SSW 8.1 mph - N/A   Overcast
12:21 AM 41.0 °F 35.8 °F 35.6 °F 81% 29.78 in 10.0 mi SW 8.1 mph - N/A   Overcast
12:30 AM 41.0 °F 35.8 °F 35.6 °F 81% 29.78 in 10.0 mi SW 8.1 mph - N/A   Overcast
12:53 AM 41.0 °F 35.8 °F 35.1 °F 79% 29.76 in 10.0 mi WSW 8.1 mph - N/A   Overcast
1:35 AM 42.8 °F 37.0 °F 35.6 °F 76% 29.77 in 10.0 mi SW 10.4 mph - N/A   Overcast
1:53 AM 41.0 °F 34.7 °F 35.1 °F 79% 29.77 in 10.0 mi SW 10.4 mph - N/A   Overcast
2:53 AM 41.0 °F 34.7 °F 35.1 °F 79% 29.75 in 10.0 mi WSW 10.4 mph - N/A   Mostly Cloudy
3:53 AM 39.9 °F 32.5 °F 36.0 °F 86% 29.75 in 10.0 mi WSW 12.7 mph - 0.00 in Rain Light Rain
4:09 AM 39.2 °F 32.0 °F 35.6 °F 87% 29.78 in 10.0 mi WSW 11.5 mph - 0.00 in Rain Light Rain
4:33 AM 39.2 °F 32.0 °F 35.6 °F 87% 29.78 in 10.0 mi WSW 11.5 mph - 0.01 in Rain Light Rain
4:53 AM 39.0 °F 33.4 °F 36.0 °F 89% 29.76 in 10.0 mi SSW 8.1 mph - 0.01 in Rain Light Rain
5:53 AM 39.0 °F 33.4 °F 36.0 °F 89% 29.76 in 10.0 mi South 8.1 mph - 0.01 in Rain Light Rain
6:53 AM 39.0 °F 32.8 °F 37.0 °F 93% 29.78 in 10.0 mi SSW 9.2 mph - 0.00 in Rain Light Rain
7:53 AM 39.0 °F 34.8 °F 37.0 °F 93% 29.80 in 9.0 mi SW 5.8 mph - 0.00 in Rain Light Rain
8:53 AM 39.9 °F 35.1 °F 37.0 °F 89% 29.80 in 10.0 mi SSW 6.9 mph - 0.00 in   Overcast
9:53 AM 41.0 °F 38.0 °F 36.0 °F 82% 29.81 in 10.0 mi SSW 4.6 mph - N/A   Overcast
10:53 AM 42.1 °F 38.4 °F 37.9 °F 85% 29.82 in 10.0 mi WSW 5.8 mph - N/A   Overcast
11:53 AM 42.1 °F - 37.0 °F 82% 29.82 in 10.0 mi Calm Calm - N/A   Overcast
12:34 PM 44.6 °F 43.1 °F 37.4 °F 76% 29.82 in 10.0 mi NW 3.5 mph - N/A   Overcast
12:53 PM 46.0 °F - 37.9 °F 73% 29.80 in 10.0 mi Calm Calm - N/A   Overcast
1:35 PM 46.4 °F - 37.4 °F 71% 29.82 in 10.0 mi Calm Calm - N/A   Overcast
1:53 PM 46.9 °F - 37.0 °F 68% 29.80 in 10.0 mi Calm Calm - N/A   Overcast
2:53 PM 50.0 °F - 37.0 °F 61% 29.78 in 10.0 mi Variable 3.5 mph - N/A   Scattered Clouds
3:53 PM 48.9 °F - 36.0 °F 61% 29.79 in 10.0 mi NNW 5.8 mph - N/A   Partly Cloudy
4:53 PM 48.9 °F - 36.0 °F 61% 29.81 in 10.0 mi Variable 4.6 mph - N/A   Overcast
5:53 PM 48.0 °F - 37.0 °F 66% 29.83 in 10.0 mi WNW 5.8 mph - 0.00 in Rain Light Rain
6:45 PM 46.4 °F 41.5 °F 39.2 °F 76% 29.86 in 4.0 mi WSW 10.4 mph 18.4 mph 0.05 in Rain Light Rain
6:50 PM 42.8 °F 38.6 °F 37.4 °F 81% 29.86 in 2.0 mi SSW 6.9 mph 18.4 mph 0.08 in Rain Heavy Rain
6:53 PM 43.0 °F 40.3 °F 37.0 °F 80% 29.86 in 1.8 mi South 4.6 mph 18.4 mph 0.09 in Rain Heavy Rain
6:56 PM 44.6 °F - 37.4 °F 76% 29.87 in 4.0 mi Calm Calm - 0.00 in Rain Rain
7:05 PM 42.8 °F 38.0 °F 37.4 °F 81% 29.87 in 10.0 mi South 8.1 mph - 0.00 in   Overcast
7:53 PM 42.1 °F 37.1 °F 37.9 °F 85% 29.88 in 10.0 mi SSW 8.1 mph - 0.00 in   Overcast
8:53 PM 41.0 °F 39.0 °F 39.0 °F 93% 29.89 in 10.0 mi South 3.5 mph - N/A   Mostly Cloudy
9:53 PM 41.0 °F 38.0 °F 39.0 °F 93% 29.91 in 10.0 mi WSW 4.6 mph - N/A   Overcast
10:53 PM 37.9 °F 34.4 °F 37.0 °F 97% 29.91 in 10.0 mi SW 4.6 mph - N/A   Clear
11:53 PM 37.0 °F 34.5 °F 36.0 °F 96% 29.94 in 10.0 mi SW 3.5 mph - N/A   Scattered Clouds